Weather History for Palm Springs, CA

Change the Weather History Date:

Monday, April 7, 2014

  Actual Average Record
Temperature  
Mean Temperature 78 °F 69 °F  
Max Temperature 93 °F 83 °F 112 °F (1989)
Min Temperature 63 °F 55 °F 40 °F (1969)
Degree Days  
Heating Degree Days 0 1  
Month to date heating degree days 8 7  
Since 1 July heating degree days 431 858  
Cooling Degree Days 13 5  
Month to date cooling degree days 22 34  
Year to date cooling degree days 297 154  
Growing Degree Days 28 (Base 50)    
Moisture  
Dew Point 25 °F    
Average Humidity 18    
Maximum Humidity 29    
Minimum Humidity 7    
Precipitation  
Precipitation 0.00 in 0.00 in 0.34 in (1958)
Month to date precipitation T 0.02  
Year to date precipitation 0.70 2.66  
Since 1 July precipitation 1.96 5.46  
Snow  
Snow 0.00 in - - ()
Month to date snowfall 0.0  
Year to date snowfall 0.0  
Since 1 July snowfall 0.0  
Snow Depth 0.00 in    
Sea Level Pressure  
Sea Level Pressure 30.05 in    
Wind  
Wind Speed 6 mph (NNW)    
Max Wind Speed 15 mph    
Max Gust Speed 17 mph    
Visibility 10 miles    
Events      
T = Trace of Precipitation, MM = Missing Value Source: NWS Daily Summary

Daily Weather History Graph

Daily Weather History Graph

Search for Another Location

Airport:

Trip Planner

Search our weather history database for the weather conditions in past years. The results will help you decide how hot, cold, wet, or windy it might be!

Date:

Astronomy

Apr. 07, 2014 Rise Set
Actual Time 6:25 AM PDT 7:11 PM PDT
Civil Twilight 6:00 AM PDT 7:36 PM PDT
Nautical Twilight 5:30 AM PDT 8:06 PM PDT
Astronomical Twilight 4:59 AM PDT 8:37 PM PDT
Moon 12:32 PM PDT (4/7) 1:44 AM PDT (4/7)
Length of Visible Light 13h 36m
Length of Day
12h 45m
First Quarter, 54% of the Moon is Illuminated
Apr 7
First Quarter
Apr 15
Full
Apr 22
Last Quarter
Apr 28
New
May 6
First Quarter

Hourly Weather History & Observations

Time (PDT) Temp. Dew Point Humidity Pressure Visibility Wind Dir Wind Speed Gust Speed Precip Events Conditions
12:53 AM 70.0 °F 30.9 °F 24% 30.03 in 10.0 mi NNW 6.9 mph - N/A   Clear
1:53 AM 66.9 °F 28.9 °F 24% 30.03 in 10.0 mi North 9.2 mph - N/A   Clear
2:53 AM 66.9 °F 33.1 °F 28% 30.03 in 10.0 mi NNW 5.8 mph - N/A   Clear
3:53 AM 68.0 °F 30.0 °F 24% 30.03 in 10.0 mi NW 9.2 mph - N/A   Clear
4:53 AM 64.9 °F 30.0 °F 27% 30.03 in 10.0 mi NW 6.9 mph - N/A   Clear
5:53 AM 69.1 °F 28.0 °F 22% 30.05 in 10.0 mi Variable 5.8 mph - N/A   Clear
6:53 AM 66.9 °F 28.9 °F 24% 30.08 in 10.0 mi Calm Calm - N/A   Clear
7:53 AM 70.0 °F 28.9 °F 22% 30.09 in 10.0 mi North 6.9 mph - N/A   Clear
8:53 AM 84.0 °F 24.1 °F 11% 30.10 in 10.0 mi NNW 5.8 mph - N/A   Clear
9:53 AM 87.1 °F 23.0 °F 10% 30.11 in 10.0 mi North 9.2 mph - N/A   Clear
10:53 AM 87.1 °F 21.9 °F 9% 30.11 in 10.0 mi Calm Calm - N/A   Clear
11:53 AM 89.1 °F 21.9 °F 9% 30.11 in 10.0 mi ESE 6.9 mph - N/A   Clear
12:53 PM 90.0 °F 19.9 °F 8% 30.09 in 10.0 mi Calm Calm - N/A   Clear
1:53 PM 91.0 °F 18.0 °F 7% 30.07 in 10.0 mi Variable 6.9 mph - N/A   Clear
2:53 PM 91.0 °F 19.9 °F 7% 30.04 in 10.0 mi WSW 4.6 mph - N/A   Clear
3:53 PM 91.9 °F 18.0 °F 7% 30.02 in 10.0 mi SSW 4.6 mph - N/A   Clear
4:53 PM 91.9 °F 18.0 °F 7% 30.01 in 10.0 mi SSW 4.6 mph - N/A   Clear
5:53 PM 91.9 °F 17.1 °F 6% 30.01 in 10.0 mi SSE 4.6 mph - N/A   Clear
6:53 PM 90.0 °F 21.9 °F 8% 30.01 in 10.0 mi ESE 8.1 mph - N/A   Clear
7:53 PM 84.9 °F 27.0 °F 12% 30.02 in 10.0 mi East 6.9 mph - N/A   Clear
8:53 PM 81.0 °F 27.0 °F 14% 30.04 in 10.0 mi Calm Calm - N/A   Clear
9:53 PM 80.1 °F 28.0 °F 15% 30.06 in 10.0 mi Calm Calm - N/A   Clear
10:53 PM 75.0 °F 25.0 °F 16% 30.08 in 10.0 mi North 9.2 mph - N/A   Clear
11:53 PM 75.0 °F 33.1 °F 22% 30.07 in 10.0 mi NNW 10.4 mph - N/A   Clear